Hourly Weather Roundup
Issued by NWS

Current Version | Previous Version | Text Only | Print | Product List | Glossary On
Versions: 1 2 3 4 5 6 7 8 9 10 11 12 13 14 15 16 17 18 19 20 21 22 23 24 25 26 27 28 29 30 31 32 33 34 35 36 37 38 39 40 41 42 43 44 45 46 47 48 49 50
000
NZUS43 KILX 222210
HWRCRS

NWR Hourly Weather Roundup
National Weather Service Lincoln IL
500 PM CDT WED MAR 22 2017


CITY           SKY/WX    TMP DP  RH WIND       PRES   REMARKS
Champaign      SUNNY     43  16  33 E14G20    30.45F
Lawrenceville  SUNNY     49  14  24 E13       30.41S
Peoria         MOSUNNY   42  18  37 E10       30.45F
Springfield    MOSUNNY   48  13  24 NE13G20   30.43F
$$


CITY           SKY/WX    TMP DP  RH WIND       PRES   REMARKS
Bloomington    SUNNY     40  19  43 E16       30.45F WCI  31
Decatur        SUNNY     44  12  27 E15       30.42F
Effingham      SUNNY    N/A N/A N/A NE6       30.42F
Flora          SUNNY     50  20  31 NE9       30.41S
Galesburg      MOSUNNY   41  21  45 E6        30.43F
Jacksonville   SUNNY     47  13  25 E14       30.41F
Lacon          MOSUNNY   41  23  48 E10       30.46F WCI  35
La Salle       SUNNY     40  19  41 E6        30.47F
Lincoln        SUNNY     44  18  35 E12       30.44F
Litchfield     SUNNY     47  15  27 E10       30.39F

CITY           SKY/WX    TMP DP  RH WIND       PRES   REMARKS
Macomb         CLOUDY    44  15  30 E9G20     30.44F
Mattoon        SUNNY     45  16  31 NE16      30.41F
Moline         MOSUNNY   44  19  36 E10       30.44F
Olney          SUNNY     46  18  31 E9        30.40F
Paris          SUNNY     42  23  47 NE13G21   30.44F WCI  35
Pontiac        SUNNY     41  21  45 E12       30.48F WCI  34
Quincy         CLOUDY    48  13  24 E16       30.38F
Rantoul        SUNNY     42  22  45 E13       30.46F
Robinson       SUNNY     47  16  29 E13G18    30.42F
Taylorville    SUNNY     47  13  25 E16       30.40F
Terre Haute    SUNNY     44  15  31 E10       30.44S
$$


CITY           SKY/WX    TMP DP  RH WIND       PRES   REMARKS
Burlington     MOSUNNY   46  19  34 E13G21    30.41F
Chicago        MOSUNNY   34  17  50 NE10      30.51F WCI  26
Des Moines     CLOUDY    46  22  38 E13       30.34F
Evansville     SUNNY     53  18  25 NE10      30.37F
Indianapolis   MOSUNNY   41  17  38 NE13      30.45F WCI  34
Kansas City    MOSUNNY   55  26  32 E17       30.23F
Milwaukee      PTSUNNY   32  17  54 E10       30.54F WCI  24
St Louis       CLOUDY    52  14  22 E10       30.38F
$$





USA.gov is the U.S. government's official web portal to all federal, state and local government web resources and services.